| time (UTC) | temp F | wind direction | speed knots | gust knots | rain 1hr in | rain 24hr in | rain mn in | humidity % | barometer mb |
| 20260503210421 | 50 | 225 | 0.0 | 0.0 | 0.00 | 0.00 | 0.00 | 57 | 948.0 |
| 20260503205920 | 50 | 225 | 0.0 | 0.0 | 0.00 | 0.00 | 0.00 | 57 | 948.0 |
| 20260503205444 | 50 | 225 | 0.0 | 0.0 | 0.00 | 0.00 | 0.00 | 56 | 948.0 |
| 20260503204919 | 50 | 225 | 0.0 | 0.0 | 0.00 | 0.00 | 0.00 | 55 | 948.0 |
| 20260503204421 | 50 | 225 | 0.0 | 0.0 | 0.00 | 0.00 | 0.00 | 55 | 948.0 |
| 20260503203920 | 50 | 225 | 0.0 | 0.0 | 0.00 | 0.00 | 0.00 | 54 | 948.0 |
| 20260503203422 | 51 | 225 | 0.0 | 0.0 | 0.00 | 0.00 | 0.00 | 54 | 948.0 |
| 20260503202420 | 51 | 225 | 0.0 | 3.5 | 0.00 | 0.00 | 0.00 | 54 | 948.0 |
| 20260503201920 | 51 | 225 | 0.0 | 3.5 | 0.00 | 0.00 | 0.00 | 53 | 948.0 |
| 20260503201421 | 51 | 225 | 2.6 | 3.5 | 0.00 | 0.00 | 0.00 | 53 | 948.0 |
| 20260503200936 | 51 | 225 | 1.7 | 2.6 | 0.00 | 0.00 | 0.00 | 53 | 948.0 |
| 20260503200422 | 51 | 225 | 2.6 | 2.6 | 0.00 | 0.00 | 0.00 | 52 | 948.0 |
| 20260503195422 | 52 | 225 | 0.0 | 0.0 | 0.00 | 0.00 | 0.00 | 51 | 948.0 |
| 20260503194923 | 52 | 225 | 0.0 | 0.0 | 0.00 | 0.00 | 0.00 | 51 | 948.0 |
| 20260503194422 | 52 | 225 | 0.0 | 0.0 | 0.00 | 0.00 | 0.00 | 51 | 948.0 |
| 20260503193420 | 52 | 225 | 0.0 | 0.9 | 0.00 | 0.00 | 0.00 | 51 | 948.0 |
| 20260503191921 | 53 | 225 | 0.0 | 0.0 | 0.00 | 0.00 | 0.00 | 50 | 948.0 |
| 20260503190940 | 53 | 225 | 0.0 | 1.7 | 0.00 | 0.00 | 0.00 | 49 | 948.0 |
| 20260503190443 | 53 | 225 | 0.0 | 1.7 | 0.00 | 0.00 | 0.00 | 49 | 948.0 |
| 20260503185421 | 54 | 225 | 0.0 | 1.7 | 0.00 | 0.00 | 0.00 | 48 | 948.0 |
| 20260503183929 | 54 | 225 | 2.6 | 3.5 | 0.00 | 0.00 | 0.00 | 48 | 948.0 |
| 20260503181420 | 56 | 202 | 0.0 | 2.6 | 0.00 | 0.00 | 0.00 | 46 | 948.0 |
| 20260503180919 | 56 | 202 | 1.7 | 2.6 | 0.00 | 0.00 | 0.00 | 46 | 948.0 |
| 20260503180425 | 56 | 202 | 2.6 | 3.5 | 0.00 | 0.00 | 0.00 | 46 | 948.0 |
| 20260503175423 | 56 | 225 | 1.7 | 3.5 | 0.00 | 0.00 | 0.00 | 45 | 948.0 |
| 20260503174919 | 57 | 248 | 1.7 | 2.6 | 0.00 | 0.00 | 0.00 | 45 | 948.0 |
| 20260503173932 | 57 | 270 | 0.0 | 3.5 | 0.00 | 0.00 | 0.00 | 44 | 948.0 |
| 20260503173432 | 57 | 270 | 3.5 | 3.5 | 0.00 | 0.00 | 0.00 | 44 | 948.0 |
| 20260503172920 | 58 | 248 | 3.5 | 3.5 | 0.00 | 0.00 | 0.00 | 43 | 948.0 |
| 20260503172426 | 58 | 248 | 1.7 | 2.6 | 0.00 | 0.00 | 0.00 | 43 | 948.0 |
| 20260503170924 | 59 | 0 | 0.0 | 1.7 | 0.00 | 0.00 | 0.00 | 41 | 948.0 |
| 20260503170420 | 59 | 0 | 0.0 | 1.7 | 0.00 | 0.00 | 0.00 | 41 | 948.0 |
| 20260503150922 | 65 | 0 | 0.0 | 0.0 | 0.00 | 0.00 | 0.00 | 36 | 949.0 |
| 20260503150432 | 66 | 0 | 0.0 | 0.0 | 0.00 | 0.00 | 0.00 | 36 | 949.0 |
| 20260503130920 | 70 | 0 | 0.0 | 2.6 | 0.00 | 0.00 | 0.00 | 32 | 950.0 |
| 20260503130421 | 70 | 0 | 0.0 | 2.6 | 0.00 | 0.00 | 0.00 | 32 | 950.0 |
| 20260503110434 | 71 | 22 | 0.9 | 2.6 | 0.00 | 0.00 | 0.00 | 30 | 951.0 |
| 20260503090419 | 64 | 0 | 0.0 | 2.6 | 0.00 | 0.00 | 0.00 | 36 | 953.0 |
| 20260503081420 | 61 | 22 | 0.0 | 3.5 | 0.00 | 0.00 | 0.00 | 40 | 954.0 |
| 20260503080421 | 61 | 22 | 0.0 | 3.5 | 0.00 | 0.00 | 0.00 | 40 | 954.0 |
| 20260503072940 | 60 | 0 | 0.0 | 0.9 | 0.00 | 0.00 | 0.00 | 48 | 954.0 |
| 20260503072439 | 60 | 0 | 0.0 | 0.9 | 0.00 | 0.00 | 0.00 | 48 | 954.0 |
| 20260503071922 | 60 | 22 | 0.0 | 1.7 | 0.00 | 0.00 | 0.00 | 51 | 954.0 |
| 20260503071419 | 59 | 22 | 0.0 | 1.7 | 0.00 | 0.00 | 0.00 | 52 | 954.0 |
| 20260503070921 | 59 | 22 | 0.0 | 0.9 | 0.00 | 0.00 | 0.00 | 54 | 954.0 |
| 20260503070422 | 58 | 22 | 0.0 | 0.9 | 0.00 | 0.00 | 0.00 | 56 | 954.0 |
| 20260503054920 | 47 | 45 | 0.0 | 0.0 | 0.00 | 0.00 | 0.00 | 69 | 954.0 |
| 20260503054420 | 46 | 45 | 0.0 | 0.9 | 0.00 | 0.00 | 0.00 | 69 | 954.0 |
| 20260503053920 | 46 | 45 | 0.0 | 0.9 | 0.00 | 0.00 | 0.00 | 70 | 954.0 |
| 20260503052926 | 45 | 45 | 0.0 | 0.0 | 0.00 | 0.00 | 0.00 | 71 | 954.0 |
| 20260503051920 | 44 | 45 | 0.0 | 0.0 | 0.00 | 0.00 | 0.00 | 72 | 954.0 |
| 20260503045420 | 42 | 45 | 0.0 | 0.0 | 0.00 | 0.00 | 0.00 | 74 | 954.0 |
| 20260503044922 | 41 | 45 | 0.0 | 0.0 | 0.00 | 0.00 | 0.00 | 74 | 954.0 |
| 20260503044429 | 41 | 45 | 0.0 | 0.0 | 0.00 | 0.00 | 0.00 | 74 | 954.0 |
| 20260503043918 | 41 | 45 | 0.0 | 0.0 | 0.00 | 0.00 | 0.00 | 75 | 954.0 |
| 20260503042434 | 40 | 45 | 0.0 | 0.0 | 0.00 | 0.00 | 0.00 | 75 | 954.0 |
| 20260503040920 | 40 | 45 | 0.0 | 0.0 | 0.00 | 0.00 | 0.00 | 77 | 953.0 |
| 20260503040418 | 40 | 45 | 0.0 | 0.0 | 0.00 | 0.00 | 0.00 | 77 | 953.0 |
| 20260503035922 | 39 | 45 | 0.0 | 0.0 | 0.00 | 0.00 | 0.00 | 77 | 953.0 |
| 20260503035419 | 38 | 45 | 0.0 | 0.0 | 0.00 | 0.00 | 0.00 | 77 | 953.0 |
| 20260503034922 | 38 | 45 | 0.0 | 0.0 | 0.00 | 0.00 | 0.00 | 78 | 953.0 |
| 20260503034432 | 37 | 45 | 0.0 | 0.0 | 0.00 | 0.00 | 0.00 | 78 | 953.0 |
| 20260503033931 | 37 | 45 | 0.0 | 0.0 | 0.00 | 0.00 | 0.00 | 78 | 953.0 |
| 20260503032419 | 35 | 45 | 0.0 | 0.0 | 0.00 | 0.00 | 0.00 | 78 | 953.0 |
| 20260503031420 | 34 | 45 | 0.0 | 0.0 | 0.00 | 0.00 | 0.00 | 78 | 953.0 |
| 20260503030923 | 34 | 45 | 0.0 | 0.0 | 0.00 | 0.00 | 0.00 | 78 | 953.0 |
| 20260503025433 | 34 | 45 | 0.0 | 0.0 | 0.00 | 0.00 | 0.00 | 77 | 953.0 |
| 20260503024418 | 34 | 45 | 0.0 | 0.0 | 0.00 | 0.00 | 0.00 | 77 | 953.0 |
| 20260503023444 | 34 | 45 | 0.0 | 0.0 | 0.00 | 0.00 | 0.00 | 77 | 953.0 |
| 20260503022918 | 34 | 45 | 0.0 | 0.0 | 0.00 | 0.00 | 0.00 | 77 | 953.0 |
| 20260503022422 | 34 | 45 | 0.0 | 0.0 | 0.00 | 0.00 | 0.00 | 77 | 953.0 |
| 20260503021919 | 34 | 45 | 0.0 | 0.0 | 0.00 | 0.00 | 0.00 | 76 | 953.0 |
| 20260503020931 | 35 | 45 | 0.0 | 0.0 | 0.00 | 0.00 | 0.00 | 76 | 953.0 |
| 20260503020421 | 35 | 45 | 0.0 | 0.0 | 0.00 | 0.00 | 0.00 | 76 | 953.0 |
| 20260503015920 | 35 | 45 | 0.0 | 0.0 | 0.00 | 0.00 | 0.00 | 75 | 953.0 |
| 20260503014939 | 35 | 45 | 0.0 | 0.0 | 0.00 | 0.00 | 0.00 | 75 | 953.0 |
| 20260503013919 | 35 | 45 | 0.0 | 0.0 | 0.00 | 0.00 | 0.00 | 75 | 953.0 |
| 20260503013418 | 35 | 45 | 0.0 | 0.0 | 0.00 | 0.00 | 0.00 | 74 | 953.0 |
| 20260503012927 | 36 | 45 | 0.0 | 0.0 | 0.00 | 0.00 | 0.00 | 74 | 953.0 |
| 20260503012430 | 36 | 45 | 0.0 | 0.0 | 0.00 | 0.00 | 0.00 | 74 | 953.0 |
| 20260503010939 | 36 | 45 | 0.0 | 0.0 | 0.00 | 0.00 | 0.00 | 73 | 953.0 |
| 20260503010419 | 36 | 45 | 0.0 | 0.0 | 0.00 | 0.00 | 0.00 | 73 | 953.0 |
| 20260503005920 | 36 | 45 | 0.0 | 0.0 | 0.00 | 0.00 | 0.00 | 73 | 953.0 |
| 20260503005418 | 36 | 45 | 0.0 | 0.0 | 0.00 | 0.00 | 0.00 | 73 | 953.0 |
| 20260503004919 | 37 | 45 | 0.0 | 0.0 | 0.00 | 0.00 | 0.00 | 73 | 953.0 |
| 20260503003929 | 37 | 45 | 0.0 | 0.0 | 0.00 | 0.00 | 0.00 | 73 | 953.0 |
| 20260503003422 | 37 | 45 | 0.0 | 0.0 | 0.00 | 0.00 | 0.00 | 73 | 953.0 |
| 20260503002422 | 37 | 45 | 0.0 | 0.0 | 0.00 | 0.00 | 0.00 | 72 | 953.0 |
| 20260503001919 | 37 | 45 | 0.0 | 0.0 | 0.00 | 0.00 | 0.00 | 72 | 953.0 |
| 20260503001420 | 37 | 45 | 0.0 | 0.0 | 0.00 | 0.00 | 0.00 | 72 | 953.0 |
| 20260503000921 | 37 | 45 | 0.0 | 0.0 | 0.00 | 0.00 | 0.00 | 72 | 953.0 |
| 20260503000425 | 37 | 45 | 0.0 | 0.0 | 0.00 | 0.00 | 0.00 | 71 | 953.0 |
| 20260502235929 | 37 | 45 | 0.0 | 0.0 | 0.00 | 0.00 | 0.00 | 71 | 953.0 |
| 20260502235436 | 38 | 45 | 0.0 | 0.0 | 0.00 | 0.00 | 0.00 | 71 | 953.0 |
| 20260502234919 | 38 | 45 | 0.0 | 0.0 | 0.00 | 0.00 | 0.00 | 71 | 953.0 |
| 20260502233919 | 38 | 45 | 0.0 | 0.0 | 0.00 | 0.00 | 0.00 | 71 | 953.0 |
| 20260502233418 | 38 | 45 | 0.0 | 0.0 | 0.00 | 0.00 | 0.00 | 71 | 953.0 |
| 20260502232923 | 38 | 45 | 0.0 | 0.0 | 0.00 | 0.00 | 0.00 | 71 | 953.0 |
| 20260502232418 | 38 | 45 | 0.0 | 0.0 | 0.00 | 0.00 | 0.00 | 70 | 953.0 |
| 20260502230935 | 38 | 45 | 0.0 | 0.0 | 0.00 | 0.00 | 0.00 | 70 | 953.0 |
| 20260502230420 | 38 | 45 | 0.0 | 0.0 | 0.00 | 0.00 | 0.00 | 69 | 953.0 |
| 20260502225919 | 38 | 45 | 0.0 | 0.0 | 0.00 | 0.00 | 0.00 | 69 | 953.0 |
| 20260502224420 | 38 | 45 | 0.0 | 0.0 | 0.00 | 0.00 | 0.00 | 69 | 953.0 |
| 20260502222930 | 39 | 45 | 0.0 | 0.0 | 0.00 | 0.00 | 0.00 | 68 | 954.0 |
| 20260502222427 | 39 | 45 | 0.0 | 0.0 | 0.00 | 0.00 | 0.00 | 68 | 954.0 |
| 20260502221418 | 39 | 45 | 0.0 | 0.0 | 0.00 | 0.00 | 0.00 | 67 | 954.0 |
| 20260502220942 | 39 | 45 | 0.0 | 0.0 | 0.00 | 0.00 | 0.00 | 67 | 954.0 |
| 20260502220439 | 39 | 45 | 0.0 | 0.0 | 0.00 | 0.00 | 0.00 | 66 | 954.0 |
| 20260502215922 | 39 | 45 | 0.0 | 0.0 | 0.00 | 0.00 | 0.00 | 66 | 954.0 |
| 20260502214918 | 40 | 45 | 0.0 | 0.0 | 0.00 | 0.00 | 0.00 | 65 | 954.0 |
| 20260502214426 | 40 | 45 | 0.0 | 0.0 | 0.00 | 0.00 | 0.00 | 65 | 954.0 |
| 20260502212920 | 40 | 45 | 0.0 | 0.0 | 0.00 | 0.00 | 0.00 | 64 | 954.0 |